Weather History for Harrison, AR

Change the Weather History Date:

Thursday, July 4, 2013

  Actual Average Record
Temperature  
Mean Temperature 71 °F 77 °F  
Max Temperature 87 °F 88 °F 105 °F (1901)
Min Temperature 55 °F 67 °F 42 °F (1924)
Degree Days  
Heating Degree Days 0 0  
Month to date heating degree days 0 0  
Since 1 June heating degree days 5 6  
Since 1 July heating degree days 0 0  
Cooling Degree Days 6 12  
Month to date cooling degree days 23 48  
Year to date cooling degree days 475 452  
Since 1 June cooling degree days 329 313  
Growing Degree Days 20 (Base 50)    
Moisture  
Dew Point 55 °F    
Average Humidity 62    
Maximum Humidity 93    
Minimum Humidity 31    
Precipitation  
Precipitation 0.92 in 0.11 in 1.92 in (1988)
Month to date precipitation 0.92 0.41  
Year to date precipitation 20.00 22.65  
Snow  
Snow 0.00 in 0.00 in - ()
Month to date snowfall 0.0 0.0  
Since 1 June snowfall 0.0 0.0  
Since 1 July snowfall 0.0 0.0  
Snow Depth 0.00 in    
Sea Level Pressure  
Sea Level Pressure 30.04 in    
Wind  
Wind Speed 3 mph (ENE)    
Max Wind Speed 21 mph    
Max Gust Speed 26 mph    
Visibility 8 miles    
Events Rain , Thunderstorm    
T = Trace of Precipitation, MM = Missing Value Source: NWS Daily Summary

Daily Weather History Graph

Daily Weather History Graph

Search for Another Location

Airport:

Trip Planner

Search our weather history database for the weather conditions in past years. The results will help you decide how hot, cold, wet, or windy it might be!

Date:

Astronomy

Jul. 04, 2013 Rise Set
Actual Time 6:00 AM CDT 8:33 PM CDT
Civil Twilight 5:30 AM CDT 9:03 PM CDT
Nautical Twilight 4:52 AM CDT 9:41 PM CDT
Astronomical Twilight 4:11 AM CDT 10:22 PM CDT
Moon 3:15 AM CDT (7/4) 5:40 PM CDT (7/4)
Length of Visible Light 15h 33m
Length of Day
14h 33m
Waning Crescent, 11% of the Moon is Illuminated
Jul 4
Waning Crescent
Jul 8
New
Jul 15
First Quarter
Jul 22
Full
Jul 29
Last Quarter

Hourly Weather History & Observations

Time (CDT) Temp. Heat Index Dew Point Humidity Pressure Visibility Wind Dir Wind Speed Gust Speed Precip Events Conditions
12:53 AM 63.0 °F - 53.1 °F 70% 30.05 in 10.0 mi SSE 4.6 mph - N/A   Scattered Clouds
1:53 AM 63.0 °F - 52.0 °F 67% 30.05 in 10.0 mi SE 5.8 mph - N/A   Clear
2:53 AM 60.1 °F - 53.1 °F 78% 30.04 in 10.0 mi Calm Calm - N/A   Clear
3:53 AM 59.0 °F - 51.1 °F 75% 30.04 in 10.0 mi Calm Calm - N/A   Clear
4:53 AM 57.0 °F - 52.0 °F 83% 30.05 in 10.0 mi Calm Calm - N/A   Clear
5:53 AM 57.9 °F - 52.0 °F 81% 30.06 in 10.0 mi Calm Calm - N/A   Clear
6:53 AM 57.9 °F - 54.0 °F 87% 30.07 in 10.0 mi Calm Calm - N/A   Clear
7:53 AM 64.0 °F - 54.0 °F 70% 30.06 in 10.0 mi SSE 4.6 mph - N/A   Clear
8:53 AM 71.1 °F - 55.0 °F 57% 30.07 in 10.0 mi SE 5.8 mph - N/A   Clear
9:53 AM 75.0 °F - 55.9 °F 51% 30.07 in 10.0 mi Calm Calm - N/A   Clear
10:53 AM 80.1 °F 80.4 °F 57.0 °F 45% 30.07 in 10.0 mi Calm Calm - N/A   Clear
11:53 AM 77.0 °F - 54.0 °F 45% 30.07 in 8.0 mi SW 4.6 mph - 0.00 in Rain Light Rain
12:53 PM 82.0 °F 81.3 °F 54.0 °F 38% 30.05 in 10.0 mi NNW 4.6 mph - 0.01 in   Partly Cloudy
1:53 PM 84.0 °F - 52.0 °F 33% 30.03 in 10.0 mi Variable 5.8 mph - N/A   Partly Cloudy
2:53 PM 84.9 °F - 52.0 °F 32% 30.01 in 10.0 mi Calm Calm - N/A   Partly Cloudy
3:53 PM 84.9 °F - 50.0 °F 30% 30.00 in 10.0 mi Variable 3.5 mph - N/A   Clear
4:53 PM 82.0 °F - 51.1 °F 34% 29.99 in 10.0 mi East 4.6 mph - N/A   Overcast
5:48 PM 68.0 °F - 59.0 °F 73% 30.04 in 1.5 mi NW 19.6 mph 26.5 mph 0.17 in Rain Heavy Rain
5:53 PM 66.0 °F - 59.0 °F 78% 30.03 in 0.8 mi NNW 17.3 mph 26.5 mph 0.34 in Rain , Thunderstorm Heavy Thunderstorms and Rain
6:01 PM 64.4 °F - 53.6 °F 68% 30.06 in 1.0 mi North 12.7 mph 23.0 mph 0.27 in Rain , Thunderstorm Heavy Thunderstorms and Rain
6:11 PM 69.8 °F - 53.6 °F 56% 30.06 in 1.2 mi ESE 8.1 mph 24.2 mph 0.48 in Rain Heavy Rain
6:22 PM 69.8 °F - 53.6 °F 56% 30.04 in 2.0 mi ENE 8.1 mph - 0.57 in Rain , Thunderstorm Heavy Rain
6:30 PM 68.0 °F - 57.2 °F 68% 30.03 in 6.0 mi ENE 4.6 mph - 0.57 in Rain , Thunderstorm Light Rain
6:38 PM 69.8 °F - 59.0 °F 68% 30.03 in 10.0 mi NE 4.6 mph - 0.57 in Rain Light Rain
6:53 PM 71.1 °F - 57.9 °F 63% 30.00 in 10.0 mi NE 4.6 mph - 0.57 in   Scattered Clouds
7:53 PM 70.0 °F - 63.0 °F 78% 30.00 in 10.0 mi NNE 8.1 mph - N/A   Clear
8:53 PM 66.9 °F - 59.0 °F 76% 30.01 in 10.0 mi NE 3.5 mph - N/A   Clear
9:53 PM 63.0 °F - 60.1 °F 90% 30.03 in 10.0 mi Calm Calm - N/A   Clear
10:53 PM 63.0 °F - 59.0 °F 87% 30.03 in 9.0 mi Calm Calm - N/A   Clear
11:53 PM 64.9 °F - 57.0 °F 75% 30.02 in 10.0 mi South 4.6 mph - N/A   Clear